Location: Prairie View Elementary School
(39.8322°N, 99.5698°W)
Time: 07:44:16
(UTC+00:00)

Cosmos 2242 Rocket - Pass Details

Date: 08 December 2019
Orbit: 617 x 652 km, 82.5° (Epoch: 24 January)

Event Time Altitude Azimuth Distance (km) Brightness Sun altitude
Rises 23:57:36 0° 165° (SSE) 2,939 7.1 -8.5°
Reaches altitude 10° 23:59:58 10° 156° (SSE) 2,039 6.2 -8.9°
Maximum altitude 00:04:05 35° 91° (E) 1,043 4.3 -9.6°
Drops below altitude 10° 00:08:15 10° 25° (NNE) 2,065 5.8 -10.4°
Enters shadow 00:10:20 - 18° (NNE) 2,854 6.6 -10.7°
